User: anonymous   Login
Location: Unspecified
(0.0000°N, 0.0000°E)
Time: 05:49:25
(UTC+02:00)
Language:

AO-7 - Orbit

View from above orbital plane
View from above orbital plane
View from above satellite
View from above satellite

Ground track
Ground track

The orbit data is extracted from the following two-line orbital elements,

1 07530U 74089B   17289.46836042 -.00000024  00000-0  12854-3 0  9993
2 07530 101.6477 255.8320 0012434  86.5334  24.1746 12.53629386964054
Epoch (UTC): 16 October 2017 11:14:26
Eccentricity: 0.0012434
inclination: 101.6477°
perigee height: 1439 km
apogee height: 1459 km
right ascension of ascending node: 255.8320°
argument of perigee: 86.5334°
revolutions per day: 12.53629386
mean anomaly at epoch: 24.1746°
orbit number at epoch: 96405

The dashed part of the orbit path shows where the satellite is in the earth's shadow,  

DLR